Regional Weather Roundup
Issued by NWS

Home | Current Version | Previous Version | Graphics & Text | Print | Product List | Glossary On
Versions: 1 2 3 4 5 6 7 8 9 10 11 12 13 14 15 16 17 18 19 20 21 22 23 24 25 26 27 28 29 30 31 32 33 34 35 36 37 38 39 40 41 42 43 44 45 46 47 48 49 50
000
ASUS45 KSLC 211810
RWRUT

UTAH REGIONAL WEATHER ROUNDUP
NATIONAL WEATHER SERVICE SALT LAKE CITY UT
1100 AM MST FRI NOV 21 2014

UTZ001>011-023>025-211900-

NORTHERN UTAH

CITY           SKY/WX    TMP DP  RH WIND       PRES   REMARKS
BRIGHAM CITY   SUNNY     39  25  56 CALM      30.05F
HILL AFB       SUNNY     41  19  41 E9        30.03F
LOGAN          SUNNY     35  25  66 CALM      30.05F
OGDEN          SUNNY     43  22  43 N5        30.03F
PROVO AIRPORT  MOSUNNY   36  25  64 CALM      30.06
SALT LAKE CITY SUNNY     43  22  43 CALM      30.04S
VERNAL         SUNNY     35  15  44 SE5       30.11S WCI  31
WENDOVER       SUNNY     34  21  60 E6        30.07S WCI  29
HEBER CITY     SUNNY     36  19  51 CALM      30.06F
WEST JORDAN    SUNNY     45  25  45 N6        30.04F

$$

UTZ012>022-026-027-211900-

SOUTHERN/CENTRAL UTAH

CITY           SKY/WX    TMP DP  RH WIND       PRES   REMARKS
BLANDING       MOSUNNY   46  16  29 CALM      30.15F
BRYCE CANYON   SUNNY     43  21  41 S3        30.07F
CEDAR CITY     SUNNY     45  25  45 CALM      30.02F
DELTA          SUNNY     39  19  43 SW7       30.05S WCI  34
MILFORD        SUNNY     45  23  42 CALM      30.03F
MOAB/CYNLANDS  SUNNY     39  17  41 NW6       30.10F WCI  35
PRICE          SUNNY     41  15  35 SE6       30.09S
ST GEORGE      CLEAR     48  18  29 CALM      30.04F
KANAB          SUNNY     52  18  25 NE6       30.07F

$$

REGIONAL REPORTS     COLORADO/ARIZONA

CITY           SKY/WX    TMP DP  RH WIND       PRES   REMARKS
CRAIG, CO      SUNNY     42  20  41 VRB5      30.09F
GRAND JUNCTION SUNNY     45  19  35 SE9       30.09F
RIFLE          SUNNY     39  18  42 CALM      30.11F
MONTROSE       SUNNY     41  20  43 CALM      30.11F
CORTEZ         SUNNY     45  19  35 CALM      30.08F
PAGE, AZ       NOT AVBL
GRAND CANYON   MOSUNNY   47  18  31 CALM      30.05F
KINGMAN        SUNNY     61  11  14 NE5       29.98S
FLAGSTAFF      PTSUNNY   43  18  36 SW7       30.06S

$$

REGIONAL REPORTS    NEVADA/IDAHO/WYOMING

CITY           SKY/WX    TMP DP  RH WIND       PRES   REMARKS
LAS VEGAS, NV  MOSUNNY   62  18  18 S5        29.96S
ELY            SUNNY     42  18  37 CALM      30.06S
ELKO           SUNNY     39  29  67 CALM      30.05F
POCATELLO, ID  MOSUNNY   31  26  82 CALM      30.05S
BURLEY         SUNNY     36  28  73 N3        30.03S
EVANSTON, WY   SUNNY     38  17  42 CALM      30.04F
ROCK SPRINGS   MOSUNNY   37  19  48 W8        30.06F WCI  31
KEMMERER       SUNNY     36  23  60 CALM      30.05F

$$


USA.gov is the U.S. government's official web portal to all federal, state and local government web resources and services.